Regional Weather Roundup
Issued by NWS Little Rock, AR

Current Version | Previous Version | Text Only | Print | Product List | Glossary On
Versions: 1 2 3 4 5 6 7 8 9 10 11 12 13 14 15 16 17 18 19 20 21 22 23 24 25 26 27 28 29 30 31 32 33 34 35 36 37 38 39 40 41 42 43 44 45 46 47 48 49 50
000 ASUS44 KLZK 021703 RWRLZK WEATHER ROUNDUP FOR ARKANSAS NATIONAL WEATHER SERVICE LITTLE ROCK AR 1100 AM CST TUE MAR 02 2021 NOTE: "FAIR" INDICATES FEW OR NO CLOUDS BELOW 12,000 FEET WITH NO SIGNIFICANT WEATHER AND/OR OBSTRUCTIONS TO VISIBILITY. ARZ001-003-010-029-021800- NORTHWEST ARKANSAS CITY SKY/WX TMP DP RH WIND PRES REMARKS FAYETTEVILLE MOSUNNY 49 31 49 S14 30.29F FORT SMITH MOSUNNY 51 35 54 CALM 30.32F HARRISON MOSUNNY 51 29 42 VRB7 30.28F BENTONVILLE MOSUNNY 49 32 52 SW9 30.30F ROGERS MOSUNNY 50 30 46 SW13 30.29F SILOAM SPGS SUNNY 51 30 44 S16G22 30.29F HIGHFILL SUNNY 50 31 48 SW10 30.28F SPRINGDALE SUNNY 50 32 50 SW12 30.29F $$ ARZ004-005-016-021800- NORTH CENTRAL ARKANSAS CITY SKY/WX TMP DP RH WIND PRES REMARKS BATESVILLE CLOUDY 45 31 58 CALM 30.34F FLIPPIN MOSUNNY 47 31 53 CALM 30.32F MTN HOME MOSUNNY 48 24 39 SW10 30.30F $$ ARZ040-041-021800- WEST CENTRAL ARKANSAS CITY SKY/WX TMP DP RH WIND PRES REMARKS MENA SUNNY 52 32 46 E6 30.30F MOUNT IDA MOSUNNY 49 29 46 VRB5 30.28S $$ ARZ009-017-025-026-028-021800- NORTHEAST ARKANSAS CITY SKY/WX TMP DP RH WIND PRES REMARKS NEWPORT CLOUDY 42 35 76 N3 30.34F WALNUT RIDGE PTSUNNY 48 32 53 S6 30.33F BLYTHEVILLE MOSUNNY 49 34 56 NE7 30.32F $$ ARZ032-043-044-021800- LITTLE ROCK METRO AREA CITY SKY/WX TMP DP RH WIND PRES REMARKS LITTLE ROCK CLOUDY 49 31 49 N8 30.33F NLR AIRPORT FAIR 43 34 70 N8 30.31F BENTON SUNNY 46 32 57 N8 30.32F JACKSONVILLE PTSUNNY 47 29 50 N3 30.33F CONWAY SUNNY 43 37 81 CALM 30.33F $$ ARZ022-023-033-042-021800- REMAINDER OF CENTRAL ARKANSAS CITY SKY/WX TMP DP RH WIND PRES REMARKS SEARCY CLOUDY 42 36 79 N7 30.34F HOT SPRINGS CLOUDY 48 30 49 NE9 30.31F RUSSELLVILLE CLOUDY 44 35 70 CALM 30.33F CLINTON PTSUNNY 41 36 81 SW3 30.35F $$ ARZ036-021800- EAST ARKANSAS CITY SKY/WX TMP DP RH WIND PRES REMARKS WEST MEMPHIS PTSUNNY 47 33 58 NE9 30.29F $$ ARZ050-053-066-070-073-021800- SOUTHWEST ARKANSAS CITY SKY/WX TMP DP RH WIND PRES REMARKS ARKADELPHIA PTSUNNY 47 32 56 NE6 30.32F TEXARKANA MOSUNNY 51 30 44 VRB7 30.30F EL DORADO LGT RAIN 45 35 68 E8 30.29F DE QUEEN SUNNY 54 22 28 VRB7 30.30F $$ ARZ056-057-069-021800- SOUTHEAST ARKANSAS CITY SKY/WX TMP DP RH WIND PRES REMARKS PINE BLUFF CLOUDY 45 34 65 E13 30.30F STUTTGART CLOUDY 44 38 79 NE6 30.32F MONTICELLO CLOUDY 45 34 65 E8 30.30F $$

USA.gov is the U.S. government's official web portal to all federal, state and local government web resources and services.